Time,TemperatureF,DewpointF,PressureIn,WindDirection,WindDirectionDegrees,WindSpeedMPH,WindSpeedGustMPH,Humidity,HourlyPrecipIn,Conditions,Clouds,dailyrainin,SoftwareType,DateUTC
2013-07-02 00:09:00,-999.0,-99.9,26.41,North,-999,-999.0,-999.0,-999,0.00,,,0.21,weatherlink.com 1.10,2013-07-02 04:09:00,
2013-07-02 00:24:00,-999.0,-99.9,26.41,North,-999,-999.0,-999.0,-999,0.00,,,0.21,weatherlink.com 1.10,2013-07-02 04:24:00,
2013-07-02 00:39:00,-999.0,-99.9,26.41,North,-999,-999.0,-999.0,-999,0.00,,,0.21,weatherlink.com 1.10,2013-07-02 04:39:00,
2013-07-02 00:54:00,-999.0,-99.9,26.41,North,-999,-999.0,-999.0,-999,0.00,,,0.21,weatherlink.com 1.10,2013-07-02 04:54:00,
2013-07-02 01:10:00,-999.0,-99.9,26.41,North,-999,-999.0,-999.0,-999,0.00,,,0.21,weatherlink.com 1.10,2013-07-02 05:10:00,
2013-07-02 01:25:00,-999.0,-99.9,26.41,North,-999,-999.0,-999.0,-999,0.00,,,0.21,weatherlink.com 1.10,2013-07-02 05:25:00,
2013-07-02 01:40:00,-999.0,-99.9,26.41,North,-999,-999.0,-999.0,-999,0.00,,,0.21,weatherlink.com 1.10,2013-07-02 05:40:00,
2013-07-02 01:55:00,-999.0,-99.9,26.41,North,-999,-999.0,-999.0,-999,0.00,,,0.00,weatherlink.com 1.10,2013-07-02 05:55:00,
2013-07-02 02:10:00,-999.0,-99.9,26.40,North,-999,-999.0,-999.0,-999,0.00,,,0.00,weatherlink.com 1.10,2013-07-02 06:10:00,
2013-07-02 02:25:00,-999.0,-99.9,26.41,North,-999,-999.0,-999.0,-999,0.00,,,0.00,weatherlink.com 1.10,2013-07-02 06:25:00,
2013-07-02 02:40:00,-999.0,-99.9,26.41,North,-999,-999.0,-999.0,-999,0.00,,,0.00,weatherlink.com 1.10,2013-07-02 06:40:00,
2013-07-02 02:55:00,-999.0,-99.9,26.41,North,-999,-999.0,-999.0,-999,0.00,,,0.00,weatherlink.com 1.10,2013-07-02 06:55:00,
2013-07-02 03:10:00,-999.0,-99.9,26.41,North,-999,-999.0,-999.0,-999,0.00,,,0.00,weatherlink.com 1.10,2013-07-02 07:10:00,
2013-07-02 03:25:00,-999.0,-99.9,26.41,North,-999,-999.0,-999.0,-999,0.00,,,0.00,weatherlink.com 1.10,2013-07-02 07:25:00,
2013-07-02 03:40:00,-999.0,-99.9,26.41,North,-999,-999.0,-999.0,-999,0.00,,,0.00,weatherlink.com 1.10,2013-07-02 07:40:00,
2013-07-02 03:55:00,-999.0,-99.9,26.41,North,-999,-999.0,-999.0,-999,0.00,,,0.00,weatherlink.com 1.10,2013-07-02 07:55:00,
2013-07-02 04:10:00,-999.0,-99.9,26.41,North,-999,-999.0,-999.0,-999,0.00,,,0.00,weatherlink.com 1.10,2013-07-02 08:10:00,
2013-07-02 04:25:00,-999.0,-99.9,26.42,North,-999,-999.0,-999.0,-999,0.00,,,0.00,weatherlink.com 1.10,2013-07-02 08:25:00,
2013-07-02 04:41:00,-999.0,-99.9,26.42,North,-999,-999.0,-999.0,-999,0.00,,,0.00,weatherlink.com 1.10,2013-07-02 08:41:00,
2013-07-02 04:56:00,-999.0,-99.9,26.42,North,-999,-999.0,-999.0,-999,0.00,,,0.00,weatherlink.com 1.10,2013-07-02 08:56:00,
2013-07-02 05:11:00,-999.0,-99.9,26.42,North,-999,-999.0,-999.0,-999,0.00,,,0.00,weatherlink.com 1.10,2013-07-02 09:11:00,
2013-07-02 05:26:00,-999.0,-99.9,26.42,North,-999,-999.0,-999.0,-999,0.00,,,0.00,weatherlink.com 1.10,2013-07-02 09:26:00,
2013-07-02 05:41:00,-999.0,-99.9,26.42,North,-999,-999.0,-999.0,-999,0.00,,,0.00,weatherlink.com 1.10,2013-07-02 09:41:00,
2013-07-02 05:56:00,-999.0,-99.9,26.43,North,-999,-999.0,-999.0,-999,0.00,,,0.00,weatherlink.com 1.10,2013-07-02 09:56:00,
2013-07-02 06:11:00,-999.0,-99.9,26.43,North,-999,-999.0,-999.0,-999,0.00,,,0.00,weatherlink.com 1.10,2013-07-02 10:11:00,
2013-07-02 06:26:00,-999.0,-99.9,26.43,North,-999,-999.0,-999.0,-999,0.00,,,0.00,weatherlink.com 1.10,2013-07-02 10:26:00,
2013-07-02 06:41:00,-999.0,-99.9,26.43,North,-999,-999.0,-999.0,-999,0.00,,,0.00,weatherlink.com 1.10,2013-07-02 10:41:00,
2013-07-02 06:56:00,-999.0,-99.9,26.44,North,-999,-999.0,-999.0,-999,0.00,,,0.00,weatherlink.com 1.10,2013-07-02 10:56:00,
2013-07-02 07:11:00,-999.0,-99.9,26.44,North,-999,-999.0,-999.0,-999,0.00,,,0.00,weatherlink.com 1.10,2013-07-02 11:11:00,
2013-07-02 07:26:00,-999.0,-99.9,26.44,North,-999,-999.0,-999.0,-999,0.00,,,0.00,weatherlink.com 1.10,2013-07-02 11:26:00,
2013-07-02 07:41:00,-999.0,-99.9,26.45,North,-999,-999.0,-999.0,-999,0.00,,,0.00,weatherlink.com 1.10,2013-07-02 11:41:00,
2013-07-02 07:57:00,-999.0,-99.9,26.46,North,-999,-999.0,-999.0,-999,0.00,,,0.00,weatherlink.com 1.10,2013-07-02 11:57:00,
2013-07-02 08:12:00,62.7,62.0,26.46,South,172,0.0,1.0,97,0.00,,,0.00,weatherlink.com 1.10,2013-07-02 12:12:00,
2013-07-02 08:27:00,63.1,62.0,26.46,South,172,0.0,2.0,97,0.00,,,0.00,weatherlink.com 1.10,2013-07-02 12:27:00,
2013-07-02 08:42:00,63.1,62.0,26.46,SSW,197,4.0,9.0,96,0.00,,,0.00,weatherlink.com 1.10,2013-07-02 12:42:00,
2013-07-02 08:57:00,63.1,62.0,26.47,SSW,206,3.0,9.0,96,0.00,,,0.00,weatherlink.com 1.10,2013-07-02 12:57:00,
2013-07-02 09:27:00,63.5,62.0,26.48,South,179,1.0,6.0,94,0.00,,,0.00,weatherlink.com 1.10,2013-07-02 13:27:00,
2013-07-02 09:42:00,63.9,62.0,26.48,SSE,168,2.0,9.0,94,0.00,,,0.00,weatherlink.com 1.10,2013-07-02 13:42:00,
2013-07-02 09:57:00,64.0,62.0,26.48,South,180,1.0,10.0,92,0.00,,,0.00,weatherlink.com 1.10,2013-07-02 13:57:00,
2013-07-02 10:12:00,64.7,62.0,26.48,SSW,208,2.0,8.0,92,0.00,,,0.00,weatherlink.com 1.10,2013-07-02 14:12:00,
2013-07-02 10:27:00,64.8,62.0,26.48,SSE,168,2.0,12.0,89,0.00,,,0.00,weatherlink.com 1.10,2013-07-02 14:27:00,
2013-07-02 10:42:00,65.3,61.0,26.49,South,184,5.0,13.0,87,0.00,,,0.00,weatherlink.com 1.10,2013-07-02 14:42:00,
2013-07-02 10:57:00,65.6,62.0,26.49,SW,217,9.0,10.0,89,0.00,,,0.00,weatherlink.com 1.10,2013-07-02 14:57:00,
2013-07-02 11:12:00,66.1,62.0,26.49,SSW,200,5.0,9.0,87,0.00,,,0.00,weatherlink.com 1.10,2013-07-02 15:12:00,
2013-07-02 11:27:00,66.9,62.0,26.50,South,174,4.0,14.0,85,0.00,,,0.00,weatherlink.com 1.10,2013-07-02 15:27:00,
2013-07-02 11:42:00,67.9,62.0,26.50,SSW,194,7.0,13.0,81,0.00,,,0.00,weatherlink.com 1.10,2013-07-02 15:42:00,
2013-07-02 11:57:00,68.4,62.0,26.49,SSW,205,11.0,15.0,79,0.00,,,0.00,weatherlink.com 1.10,2013-07-02 15:57:00,
2013-07-02 12:12:00,68.8,62.0,26.49,South,181,5.0,11.0,79,0.00,,,0.00,weatherlink.com 1.10,2013-07-02 16:12:00,
2013-07-02 12:27:00,68.1,61.0,26.49,SSW,200,5.0,8.0,77,0.00,,,0.00,weatherlink.com 1.10,2013-07-02 16:27:00,
2013-07-02 12:42:00,68.4,62.0,26.49,SSW,195,2.0,8.0,79,0.00,,,0.00,weatherlink.com 1.10,2013-07-02 16:42:00,
2013-07-02 12:57:00,68.6,62.0,26.49,South,184,2.0,7.0,79,0.00,,,0.00,weatherlink.com 1.10,2013-07-02 16:57:00,
2013-07-02 13:12:00,68.1,62.0,26.49,SE,130,6.0,7.0,82,0.00,,,0.00,weatherlink.com 1.10,2013-07-02 17:12:00,
2013-07-02 13:27:00,67.6,63.0,26.49,SE,126,3.0,7.0,84,0.00,,,0.00,weatherlink.com 1.10,2013-07-02 17:27:00,
2013-07-02 13:57:00,65.8,63.0,26.49,ESE,117,0.0,7.0,91,0.03,,,0.03,weatherlink.com 1.10,2013-07-02 17:57:00,
2013-07-02 14:12:00,65.0,63.0,26.50,ESE,122,4.0,10.0,93,0.10,,,0.10,weatherlink.com 1.10,2013-07-02 18:12:00,
2013-07-02 14:27:00,65.0,63.0,26.50,SE,140,2.0,6.0,93,0.11,,,0.11,weatherlink.com 1.10,2013-07-02 18:27:00,
2013-07-02 14:42:00,65.5,64.0,26.49,SE,134,0.0,4.0,94,0.11,,,0.11,weatherlink.com 1.10,2013-07-02 18:42:00,
2013-07-02 14:57:00,66.1,64.0,26.49,SE,144,3.0,7.0,92,0.08,,,0.11,weatherlink.com 1.10,2013-07-02 18:57:00,
2013-07-02 15:12:00,66.6,64.0,26.49,SE,132,0.0,4.0,90,0.01,,,0.11,weatherlink.com 1.10,2013-07-02 19:12:00,
2013-07-02 15:27:00,65.8,63.0,26.50,SE,126,0.0,7.0,90,0.00,,,0.11,weatherlink.com 1.10,2013-07-02 19:27:00,
2013-07-02 15:42:00,66.3,63.0,26.49,North,5,2.0,8.0,90,0.00,,,0.11,weatherlink.com 1.10,2013-07-02 19:42:00,
2013-07-02 15:57:00,67.1,64.0,26.49,East,80,0.0,7.0,88,0.00,,,0.11,weatherlink.com 1.10,2013-07-02 19:57:00,
2013-07-02 16:12:00,66.6,63.0,26.50,South,186,3.0,7.0,89,0.00,,,0.11,weatherlink.com 1.10,2013-07-02 20:12:00,
2013-07-02 16:27:00,66.1,63.0,26.49,ESE,108,1.0,8.0,90,0.00,,,0.11,weatherlink.com 1.10,2013-07-02 20:27:00,
2013-07-02 16:42:00,66.3,63.0,26.49,East,101,0.0,8.0,89,0.00,,,0.11,weatherlink.com 1.10,2013-07-02 20:42:00,
2013-07-02 16:57:00,66.9,64.0,26.49,ESE,120,5.0,10.0,90,0.00,,,0.11,weatherlink.com 1.10,2013-07-02 20:57:00,
2013-07-02 17:12:00,66.9,63.0,26.49,SE,125,0.0,7.0,88,0.00,,,0.11,weatherlink.com 1.10,2013-07-02 21:12:00,
2013-07-02 17:27:00,66.8,63.0,26.49,ENE,66,3.0,7.0,88,0.00,,,0.11,weatherlink.com 1.10,2013-07-02 21:27:00,
2013-07-02 17:42:00,66.6,63.0,26.49,SE,131,4.0,7.0,88,0.00,,,0.11,weatherlink.com 1.10,2013-07-02 21:42:00,
2013-07-02 17:57:00,66.0,62.0,26.50,ESE,107,3.0,7.0,88,0.00,,,0.11,weatherlink.com 1.10,2013-07-02 21:57:00,
2013-07-02 18:12:00,65.5,63.0,26.50,SE,134,0.0,8.0,90,0.00,,,0.11,weatherlink.com 1.10,2013-07-02 22:12:00,
2013-07-02 18:27:00,65.0,62.0,26.50,ESE,104,0.0,5.0,91,0.00,,,0.11,weatherlink.com 1.10,2013-07-02 22:27:00,
2013-07-02 18:42:00,64.7,62.0,26.50,ESE,116,2.0,8.0,92,0.00,,,0.11,weatherlink.com 1.10,2013-07-02 22:42:00,
2013-07-02 18:57:00,64.5,63.0,26.51,ESE,117,1.0,4.0,93,0.00,,,0.11,weatherlink.com 1.10,2013-07-02 22:57:00,
2013-07-02 19:12:00,64.5,63.0,26.51,ESE,117,0.0,3.0,94,0.00,,,0.11,weatherlink.com 1.10,2013-07-02 23:12:00,
2013-07-02 19:27:00,64.5,63.0,26.52,ESE,121,4.0,7.0,94,0.00,,,0.11,weatherlink.com 1.10,2013-07-02 23:27:00,
2013-07-02 19:43:00,64.5,63.0,26.52,SE,130,0.0,6.0,94,0.00,,,0.11,weatherlink.com 1.10,2013-07-02 23:43:00,
2013-07-02 19:58:00,64.5,63.0,26.52,SE,130,1.0,4.0,94,0.00,,,0.11,weatherlink.com 1.10,2013-07-02 23:58:00,
2013-07-02 20:13:00,-999.0,-99.9,26.52,North,-999,-999.0,-999.0,-999,0.00,,,0.11,weatherlink.com 1.10,2013-07-03 00:13:00,
2013-07-02 20:28:00,-999.0,-99.9,26.52,North,-999,-999.0,-999.0,-999,0.00,,,0.11,weatherlink.com 1.10,2013-07-03 00:28:00,
2013-07-02 20:43:00,-999.0,-99.9,26.52,North,-999,-999.0,-999.0,-999,0.00,,,0.11,weatherlink.com 1.10,2013-07-03 00:43:00,
2013-07-02 20:58:00,-999.0,-99.9,26.53,North,-999,-999.0,-999.0,-999,0.00,,,0.11,weatherlink.com 1.10,2013-07-03 00:58:00,
2013-07-02 21:13:00,-999.0,-99.9,26.53,North,-999,-999.0,-999.0,-999,0.00,,,0.11,weatherlink.com 1.10,2013-07-03 01:13:00,
2013-07-02 21:28:00,-999.0,-99.9,26.54,North,-999,-999.0,-999.0,-999,0.00,,,0.11,weatherlink.com 1.10,2013-07-03 01:28:00,
2013-07-02 21:43:00,-999.0,-99.9,26.55,North,-999,-999.0,-999.0,-999,0.00,,,0.11,weatherlink.com 1.10,2013-07-03 01:43:00,
2013-07-02 21:58:00,-999.0,-99.9,26.56,North,-999,-999.0,-999.0,-999,0.00,,,0.11,weatherlink.com 1.10,2013-07-03 01:58:00,
2013-07-02 22:13:00,-999.0,-99.9,26.55,North,-999,-999.0,-999.0,-999,0.00,,,0.11,weatherlink.com 1.10,2013-07-03 02:13:00,
2013-07-02 22:28:00,-999.0,-99.9,26.56,North,-999,-999.0,-999.0,-999,0.00,,,0.11,weatherlink.com 1.10,2013-07-03 02:28:00,
2013-07-02 22:43:00,-999.0,-99.9,26.57,North,-999,-999.0,-999.0,-999,0.00,,,0.11,weatherlink.com 1.10,2013-07-03 02:43:00,
2013-07-02 23:13:00,-999.0,-99.9,26.56,North,-999,-999.0,-999.0,-999,0.00,,,0.11,weatherlink.com 1.10,2013-07-03 03:13:00,
2013-07-02 23:29:00,-999.0,-99.9,26.57,North,-999,-999.0,-999.0,-999,0.00,,,0.11,weatherlink.com 1.10,2013-07-03 03:29:00,
2013-07-02 23:44:00,-999.0,-99.9,26.56,North,-999,-999.0,-999.0,-999,0.00,,,0.11,weatherlink.com 1.10,2013-07-03 03:44:00,
2013-07-02 23:59:00,-999.0,-99.9,26.56,North,-999,-999.0,-999.0,-999,0.00,,,0.11,weatherlink.com 1.10,2013-07-03 03:59:00,